Tracking 19831 objects as of 24-Aug-2019
HD Live streaming from Space Station
objects crossing your sky now

FLOCK 3P 28

Track FLOCK 3P 28 now!
10-day predictions
FLOCK 3P 28 is classified as:


NORAD ID: 41960
Int'l Code: 2017-008N
Perigee: 490.8 km
Apogee: 499.6 km
Inclination: 97.4 °
Period: 94.4 minutes
Semi major axis: 6866 km
RCS: Unknown
Launch date: February 15, 2017
Source: United States (US)
Launch site: SRIHARIKOTA (SRI)
aabbcc
Your satellite tracking list
Your tracking list is empty




NASA's NSSDC Master Catalog

Two Line Element Set (TLE):
1 41960U 17008N   19234.94876627  .00001181  00000-0  48890-4 0  9998
2 41960  97.4019 301.2902 0006455 268.5760  91.4739 15.25908006139836
Source of the keplerian elements: AFSPC